www.pogodaiklimat.ru

Погода и климат >> Архив погоды >> Таиланд >> Ко Сичан


ПОГОДА на Ко Сичан

  • Прогноз погоды на Ко Сичан
  • Монитор погоды на Ко Сичан

АРХИВ ПОГОДЫ на Ко Сичан

Время (UTC), дата Ветер
(напр.,м/с)
 
Видим.   Явления Облачность Т
(С)
Тd
(С)
f
(%)
Тe
(С)
Тes
(С)
Комфортность P
(гПа)
Po
(гПа)
Тmin
(С)
Tmax
(С)
R
(мм)
R24
(мм)
S
(см)
09 15.02 Ю 3 8000 м мгла 4/0
[Cs]
+31.7 +23.2 61 +42 +46 опасность
перегрева
1011.3 1008.2
12 15.02 ЮВ 5 8000 м дымка 5/1 600 м
[Cu med, cong Cs]
+28.5 +24.9 81 +41 +41 опасность
перегрева
1012.7 1009.5 +32.0
15 15.02 В 3 8000 м дымка 4/0
[Cs]
+28.0 +24.4 81 +39 +39 очень
душно
1014.6 1011.5
18 15.02 В 3 8000 м дымка 4/0
[Cs]
+28.0 +25.1 84 +40 +40 очень
душно
1014.2 1011.0
21 15.02 штиль 0 8000 м дымка 4/0
[Cs]
+27.2 +24.0 83 +38 +38 очень
душно
1012.3 1009.1
00 16.02 штиль 0 8000 м дымка 5/3 600 м
[Cu hum Cs]
+27.0 +23.3 80 +36 +37 очень
душно
1014.0 1010.9 +25.0
03 16.02 штиль 0 8000 м дымка 6/4 600 м
[Cu hum Cs]
+30.5 +24.0 68 +42 +51 опасность
перегрева
1015.5 1012.4
06 16.02 ЮВ 3 8000 м дымка 5/3 600 м
[Cu hum Cs]
+31.3 +24.1 66 +43 +53 опасность
перегрева
1013.1 1010.0
09 16.02 штиль 0 8000 м в посл. час дождь 8/6 600 м
[Sc Cs]
+29.3 +25.3 79 +43 +45 опасность
перегрева
1011.1 1008.0 0.0
12 16.02 штиль 0 8000 м дымка {дождь} 8/5 600 м
[Sc Cs]
+28.6 +23.8 75 +39 +39 очень
душно
1011.2 1008.1 +32.3 0.0
15 16.02 штиль 0 8000 м дымка 6/3 600 м
[Sc Cs]
+28.0 +23.6 77 +38 +38 очень
душно
1012.4 1009.3
18 16.02 штиль 0 8000 м дымка 6/0
[Cs]
+27.5 +23.9 81 +38 +38 очень
душно
1012.4 1009.3
21 16.02 штиль 0 8000 м дымка 8/5 600 м
[Sc Cs]
+27.6 +23.8 80 +38 +38 очень
душно
1011.6 1008.4
00 17.02 штиль 0 8000 м дымка 6/3 600 м
[Sc Cs]
+27.6 +23.8 80 +38 +38 очень
душно
1012.6 1009.5 +27.0 0.0
03 17.02 ЮВ 5 8000 м дымка 6/4 600 м
[Cu hum Cs]
+30.5 +23.2 65 +41 +44 опасность
перегрева
1014.5 1011.4
06 17.02 ЮВ 4 8000 м дымка 4/3 600 м
[Cu hum Cs]
+31.5 +24.0 65 +43 +52 опасность
перегрева
1012.1 1009.0
09 17.02 В 5 8000 м дымка 5/0
[Ac lent Cs]
+30.5 +24.0 68 +42 +44 опасность
перегрева
1009.8 1006.7
12 17.02 В 4 8000 м дымка 5/3 600 м
[Sc Cs]
+28.1 +23.6 77 +39 +39 очень
душно
1010.6 1007.4 +32.0
15 17.02 СВ 4 8000 м дымка 5/3 600 м
[Sc Cs]
+27.6 +23.8 80 +38 +38 очень
душно
1011.8 1008.6
18 17.02 штиль 0 8000 м дымка 5/3 600 м
[Sc Cs]
+27.5 +23.9 81 +38 +38 очень
душно
1011.5 1008.4
21 17.02 штиль 0 8000 м дымка 8/5 600 м
[Sc Cs]
+27.5 +23.9 81 +38 +38 очень
душно
1010.3 1007.1
00 18.02 штиль 0 8000 м дымка 6/3 600 м
[Sc Cs]
+27.3 +23.7 81 +37 +38 очень
душно
1011.8 1008.7 +26.8
03 18.02 СВ 4 8000 м дымка 4/0
[Cs]
+30.6 +24.3 69 +43 +50 опасность
перегрева
1014.3 1011.1
06 18.02 С 3 8000 м дымка 3/0
[Cs]
+31.5 +25.1 69 +45 +59 опасность
перегрева
1012.3 1009.2
09 18.02 штиль 0 8000 м дымка 3/0
[Cs]
+31.0 +24.6 69 +44 +51 опасность
перегрева
1009.5 1006.4
12 18.02 СВ 4 8000 м дымка 3/0
[Cs]
+28.9 +22.4 68 +38 +38 очень
душно
1010.4 1007.2 +32.5
15 18.02 СВ 4 8000 м дымка 4/0
[Cs]
+27.5 +23.9 81 +38 +38 очень
душно
1011.8 1008.7
18 18.02 штиль 0 8000 м дымка 4/0
[Cs]
+27.0 +24.1 84 +37 +37 очень
душно
1011.5 1008.3
21 18.02 штиль 0 8000 м дымка 6/3 600 м
[Sc Cs]
+27.0 +24.4 86 +38 +38 очень
душно
1010.3 1007.2
00 19.02 штиль 0 8000 м дымка 5/3 600 м
[Cu hum Cs]
+26.8 +24.2 86 +37 +38 очень
душно
1012.1 1008.9 +26.4
03 19.02 В 5 8000 м дымка 5/3 600 м
[Cu hum Cs]
+31.0 +25.0 70 +44 +49 опасность
перегрева
1014.3 1011.1
06 19.02 Ю 5 8000 м дымка 3/1 600 м
[Cu hum Ci fib]
+32.1 +24.9 66 +46 +54 опасность
перегрева
1013.0 1009.9
09 19.02 Ю 3 10 км 3/1 600 м
[Cu hum Ci fib]
+31.7 +25.0 68 +45 +49 опасность
перегрева
1010.8 1007.7
12 19.02 В 4 10 км 4/0
[Cs]
+28.5 +24.5 79 +40 +40 очень
душно
1011.9 1008.8 +32.4
15 19.02 штиль 0 10 км 3/0
[Cs]
+27.7 +24.5 83 +39 +39 очень
душно
1014.1 1011.0
18 19.02 С 4 10 км 3/0
[Cs]
+27.1 +24.8 87 +39 +39 очень
душно
1014.0 1010.8
21 19.02 штиль 0 10 км 3/0
[Cs]
+26.7 +24.8 89 +38 +38 очень
душно
1012.6 1009.4
00 20.02 штиль 0 8000 м дымка 5/3 600 м
[Cu hum Cs]
+26.9 +24.7 88 +38 +39 очень
душно
1013.6 1010.4 +26.0
03 20.02 ЮВ 4 10 км 5/3 600 м
[Cu hum Cs]
+29.9 +25.1 75 +43 +49 опасность
перегрева
1015.9 1012.7
06 20.02 Ю 4 10 км 4/1 600 м
[Cu hum Cs]
+31.3 +24.9 69 +45 +55 опасность
перегрева
1014.5 1011.4
09 20.02 Ю 8 10 км 4/0
[Cs]
+30.5 +25.1 73 +44 +45 опасность
перегрева
1012.0 1008.9
12 20.02 В 4 10 км 4/0
[Cs]
+28.5 +25.4 83 +42 +42 опасность
перегрева
1012.7 1009.5 +32.1
15 20.02 штиль 0 10 км 3/0
[Cs]
+27.8 +25.1 85 +40 +40 очень
душно
1014.5 1011.4
18 20.02 штиль 0 10 км 3/0
[Cs]
+27.5 +25.1 87 +40 +40 очень
душно
1014.0 1010.8
21 20.02 штиль 0 10 км 3/0
[Cs]
+27.2 +25.2 89 +39 +39 очень
душно
1012.7 1009.6
00 21.02 штиль 0 8000 м дымка 4/1 600 м
[Cu hum Cs]
+25.9 +24.6 93 +37 +37 очень
душно
1013.4 1010.3 +25.4
03 21.02 штиль 0 10 км 6/4 600 м
[Cu hum Cs]
+28.8 +26.0 85 +43 +53 опасность
перегрева
1015.7 1012.6
06 21.02 штиль 0 10 км 3/0
[Cs]
+31.5 +25.6 71 +46 +69 опасность
перегрева
1014.1 1010.9
09 21.02 ЮВ 8 10 км 4/1 600 м
[Cu med, cong Cs]
+31.0 +24.6 69 +44 +45 опасность
перегрева
1011.3 1008.2
12 21.02 Ю 3 10 км 4/0
[Cs]
+28.5 +24.9 81 +41 +41 опасность
перегрева
1012.0 1008.9 +32.2
15 21.02 штиль 0 10 км 4/0
[Cs]
+28.0 +25.1 84 +40 +40 очень
душно
1013.2 1010.1
18 21.02 штиль 0 10 км 4/0
[Cs]
+27.7 +25.0 85 +40 +40 очень
душно
1012.4 1009.3
21 21.02 штиль 0 10 км 4/0
[Cs]
+27.5 +24.6 84 +39 +39 очень
душно
1010.5 1007.3
00 22.02 штиль 0 10 км 4/1 600 м
[Cu med, cong Cs]
+26.7 +24.2 86 +37 +38 очень
душно
1011.7 1008.5 +26.0
03 22.02 СВ 5 10 км 4/0
[Cs]
+31.0 +24.6 69 +44 +50 опасность
перегрева
1012.9 1009.8
06 22.02 Ю 3 10 км 4/0
[Cs]
+30.6 +25.5 74 +45 +59 опасность
перегрева
1012.1 1009.0

 

Местоположение метеостанции Ко Сичан (Таиланд): широта 13.17 долгота 100.80 высота над уровнем моря 26 м.

В архиве по умолчанию представлена погода на Ко Сичан за последнюю неделю. Архивные данные за месяц целиком и за предыдущие месяцы, начиная с января 2011 года, Вы можете получить, выбрав интересующий диапазон дат из раскрывающегося списка и нажав кнопку "Ввод!".


*Определитесь, кто Вы:
робот инопланетянин человек

Внимание! Время в таблицах - всемирное. Для получения местного времени необходимо прибавить поправку, которая равна 7 ч.

Смотрите также архив погоды в соседних городах и на ближайших метеорологических станциях:

Погода в Паттайе (Таиланд) (29 км)
Погода в Чонбури (Таиланд) (30 км)
Погода в Ратбури (Таиланд) (30 км)
Погода в Бангкок Пилот (Таиланд) (32 км)
Погода в Самутрудкан Агромете (Таиланд) (39 км)
Погода в Аэропорту Суварнабхуми (Таиланд) (57 км)
Погода в Саттахипе (Таиланд) (58 км)
Погода в Бангна Агромете (Таиланд) (59 км)
Погода в Хуайпонг Агромете (Таиланд) (61 км)
Погода в Бангкоке 2 (Таиланд) (64 км)

Пояснения к столбцам:

Ветер - указаны скорость ветра в м/с - средняя за 10 мин, порывы в срок и между сроками (в фигурных скобках) и направление, откуда дует ветер: С - северный, СВ - северо-восточный, В - восточный, ЮВ - юго-восточный, Ю - южный, ЮЗ - юго-западный, З - западный, СЗ - северо-западный.
Видимость - горизонтальная дальность видимости в метрах или километрах. При видимости от 1 до 10 км при отсутствии осадков обычно наблюдается дымка, при ухудшении видимости до 1 км и менее - туман. В сухую погоду видимость может ухудшаться дымом, пылью или мглою.
Явления - указаны атмосферные явления, наблюдавшиеся в срок или в последний час перед сроком; фигурными скобками обозначены явления, наблюдавшиеся между сроками (за 1-3 часа до срока); квадратными скобками обозначены град или гололедные отложения с указанием их диаметра в мм.
Облачность - указаны через наклонную черту общая и нижняя облачность в баллах и высота нижней границы облаков в метрах; квадратными скобками обозначены формы облаков: Ci - перистые, Cs - перисто-слоистые, Cc - перисто-кучевые, Ac - высококучевые, As - высокослоистые, Sc - слоисто-кучевые, Ns - слоисто-дождевые, Cu - кучевые, Cb - кучево-дождевые. Подробнее классификацию облаков см. в Атласе облаков (PDF).
T - Температура воздуха - температура, измеренная на высоте 2 м над землей.
Td - Температура точки росы - температура, при понижении до которой содержащийся в воздухе водяной пар достигнет насыщения.
f - Относительная влажность воздуха - влажноcть воздуха, измеренная на высоте 2 м над землей.
Te - Эффективная температура - температура, которую ощущает одетый по сезону человек в тени. Характеристика душности погоды. При расчете учитывается влияние влажности воздуха и скорости ветра на теплоощущения человека.
Tes - Эффективная температура на солнце - температура, которую ощущает человек, с поправкой на солнечный нагрев. Характеристика знойности погоды. Зависит от высоты солнца над горизонтом, облачности и скорости ветра. Ночью, в пасмурную погоду, а также при ветре 12 м/с и более поправка равна нулю.
P - Атмосферное давление - приведенное к уровню моря атмосферное давление.
Po - Атмосферное давление - измеренное на уровне метеостанции атмосферное давление.
Tmin - Минимальная температура - минимум температуры воздуха на высоте 2 м над землей.
Tmax - Максимальная температура - максимум температуры воздуха на высоте 2 м над землей.
R - Количество осадков - Количество выпавших осадков за период времени, мм. При наведении курсора мыши на число - период времени, за который выпало указанное количество осадков.
R24 - Количество осадков - Количество выпавших осадков за 24 часа, мм.
S - Снежный покров - Высота снежного покрова, см. При наведении курсора мыши на число - состояние снежного покрова и степень покрытия местности в баллах.